User: anonymous   Login
Location: Caltech
(34.1382°N, 118.1253°W)
Time: 10:02:05
(UTC-08:00)
Language:

PAYLOAD A - Orbit

View from above orbital plane
View from above orbital plane
View from above satellite
View from above satellite

Ground track
Ground track

The orbit data is extracted from the following two-line orbital elements,

1 27840U 03031A   17058.08558521 -.00000020  00000-0  67814-5 0  9997
2 27840  98.2022  60.3529 0099523  90.9571 270.3022 14.38875229717482
Epoch (UTC): 27 February 2017 02:03:14
Eccentricity: 0.0099523
inclination: 98.2022°
perigee height: 691 km
apogee height: 833 km
right ascension of ascending node: 60.3529°
argument of perigee: 90.9571°
revolutions per day: 14.38875229
mean anomaly at epoch: 270.3022°
orbit number at epoch: 71748

The dashed part of the orbit path shows where the satellite is in the earth's shadow,  

DLR